EHI
0 0 0 0 0 0 0 0 0 0 0 0 0 0 0 0 0 0 0 0 0 0 0 0 0 0 0 0 0 0 0 0 0 0 0 0 0 0 0 0 0 0 0 0
0 0 0 0 0 0 0 0 0 0 0 0 0 0 0 0 0 0 0 0 0 0 0 0 0 0 0 0 0 0 0 0 0 0 0 0 0 0 0 0 0 0 0 0
0 0 0 0 0 0 0 0 0 0 0 0 0 0 0 0 0 0 0 0 0 0 0 0 0 0 0 0 0 0 0 0 0 0 0 0 0 0 0 0 0 0 0 0
0 0 0 0 0 0 0 0 0 0 0 0 0 0 0 0 0 0 0 0 0 0 0 0 0 0 0 0 0 0 0 0 0 0 0 0 0 0 0 0 0 0 0 0
0 0 0 0 0 0 0 0 0 0 0 0 0 0 0 0 0 0 0 0 0 0 0 0 0 0 0 0 0 0 0 0 0 0 0 0 0 0 0 0 0 0 0 0
0 0 0 0 0 0 0 0 0 0 0 0 0 0 0 0 0 0 0 0 0 0 0 0 0 0 0 0 0 0 0 0 0 0 0 0 0 0 0 0 0 0 0 0
0 0 0 0 0 0 0 0 0 0 0 0 0 0 0 0 0 0 0 0 0 0 0 0 0 0 0 0 0 0 0 0 0 0 0 0 0 0 0 0 0 0 0 0
0 0 0 0 0 0 0 0 0 0 0 0 0 0 0 0 0 0 0 0 0 0 0 0 0 0 0 0 0 0 0 0 0 0 0 0 0 0 0 0 0 0 0 0
0 0 0 0 0 0 0 0 0 0 0 0 0 0 0 0 0 0 0 0 0 0 0 0 0 0 0 0 0 0 0 0 0 0 0 0 0 0 0 0 0 0 0 0
0 0 0 0 0 0 0 0 0 0 0 0 0 0 0 0 0 0 0 0 0 0 0 0 0 0 0 0 0 0 0 0 0 0 0 0 0 0 0 0 0 0 0 0
0 0 0 0 0 0 0 0 0 0 0 0 0 0 0 0 0 0 0 0 0 0 0 0 0 0 0 0 0 0 0 0 0 0 0 0 0 0 0 0 0 0 0 0
0 0 0 0 0 0 0 0 0 0 0 0 0 0 0 0 0 0 0 0 0 0 0 0 0 0 0 0 0 0 0 0 0 0 0 0 0 0 0 0 0 0 0 0
0 0 0 0 0 0 0 0 0 0 0 0 0 0 0 0 0 0 0 0 0 0 0 0 0 0 0 0 0 0 0 0 0 0 0 0 0 0 0 0 0 0 0 0
0 0 0 0 0 0 0 0 0 0 0 0 0 0 0 0 0 0 0 0 0 0 0 0 0 0 0 0 0 0 0 0 0 0 0 0 0 0 0 0 0 0 0 0
0 0 0 0 0 0 0 0 0 0 0 0 0 0 0 0 0 0 0 0 0 0 0 0 0 0 0 0 0 0 0 0 0 0 0 0 0 0 0 0 0 0 0 0
0 0 0 0 0 0 0 0 0 0 0 0 0 0 0 0 0 0 0 0 0 0 0 0 0 0 0 0 0 0 0 0 0 0 0 0 0 0 0 0 0 0 0 0
0 0 0 0 0 0 0 0 0 0 0 0 0 0 0 0 0 0 0 0 0 0 0 0 0 0 0 0 0 0 0 0 0 0 0 0 0 0 0 0 0 0 0 0
0 0 0 0 0 0 0 0 0 0 0 0 0 0 0 0 0 0 0 0 0 0 0 0 0 0 0 0 0 0 0 0 0 0 0 0 0 0 0 0 0 0 0 0
0 0 0 0 0 0 0 0 0 0 0 0 0 0 0 0 0 0 0 0 0 0 0 0 0 0 0 0 0 0 0 0 0 0 0 0 0 0 0 0 0 0 0 0
0 0 0 0 0 0 0 0 0 0 0 0 0 0 0 0 0 0 0 0 0 0 0 0 0 0 0 0 0 0 0 0 0 0 0 0 0 0 0 0 0 0 0 0
0 0 0 0 0 0 0 0 0 0 0 0 0 0 0 0 0 0 0 0 0 0 0 0 0 0 0 0 0 0 0 0 0 0 0 0 0 0 0 0 0 0 0 0
0 0 0 0 0 0 0 0 0 0 0 0 0 0 0 0 0 0 0 0 0 0 0 0 0 0 0 0 0 0 0 0 0 0 0 0 0 0 0 0 0 0 0 0
0 0 0 0 0 0 0 0 0 0 0 0 0 0 0 0 0 0 0 0 0 0 0 0 0 0 0 0 0 0 0 0 0 0 0 0 0 0 0 0 0 0 0 0
0 0 0 0 0 0 0 0 0 0 0 0 0 0 0 0 0 0 0 0 0 0 0 0 0 0 0 0 0 0 0 0 0 0 0 0 0 0 0 0 0 0 0 0
0 0 0 0 0 0 0 0 0 0 0 0 0 0 0 0 0 0 0 0 0 0 0 0 0 0 0 0 0 0 0 0 0 0 0 0 0 0 0 0 0 0 0 0
0 0 0 0 0 0 0 0 0 0 0 0 0 0 0 0 0 0 0 0 0 0 0 0 0 0 0 0 0 0 0 0 0 0 0 0 0 0 0 0 0 0 0 0
Wind_Speed
4 3 5 5 7 7 6 7 8 6 3 3 6 8 8 5 4 4 3 3 2 1 2 3 2 2 2 2 2 2 2 2 1 1 1 1 1 1 1 2 2 2 2 2
3 7 7 4 4 6 7 8 7 5 1 3 6 9 9 6 6 5 4 2 2 2 3 3 3 3 2 2 2 2 2 1 1 1 1 1 1 1 1 2 2 2 2 2
6 1 2 4 5 5 8 7 7 5 5 4 5 7 7 5 4 3 2 2 3 3 3 3 3 3 3 3 2 2 2 1 1 1 1 2 2 1 1 1 1 2 2 2
6 4 2 3 5 5 7 4 5 4 3 3 2 5 5 4 4 3 2 2 3 3 3 3 3 3 3 2 2 2 2 2 1 1 1 2 2 1 1 1 1 2 2 1
4 2 3 5 4 4 3 3 4 4 4 5 4 5 6 3 4 4 4 3 3 3 3 3 3 2 2 2 2 2 2 2 2 2 2 1 1 1 1 1 2 2 1 1
4 2 2 3 2 2 2 2 3 3 2 5 6 6 6 2 4 4 4 4 3 3 3 3 3 3 3 3 3 3 2 3 2 2 1 1 1 1 1 2 1 1 1 1
4 4 3 1 1 2 2 2 1 2 3 7 3 5 6 1 2 3 5 5 4 4 3 3 3 3 3 3 3 3 3 3 2 2 1 1 0 0 1 1 1 1 1 0
4 4 5 3 4 3 5 4 3 3 4 3 2 6 4 2 2 2 3 5 5 4 3 3 3 3 3 3 3 3 3 3 3 2 1 1 0 0 0 0 0 1 1 1
3 3 1 1 2 2 4 5 2 1 2 4 6 4 2 2 2 2 3 4 4 4 4 3 3 3 2 2 2 3 2 2 2 2 2 1 1 1 1 0 0 0 0 0
2 3 1 1 1 4 3 2 1 3 4 6 6 6 5 5 4 4 3 3 3 3 4 3 2 2 2 2 2 3 3 2 2 2 2 2 1 1 1 1 0 1 0 0
2 2 2 2 5 6 4 3 4 4 4 4 5 4 1 4 5 5 4 3 3 3 3 2 2 2 2 2 2 2 2 3 3 3 2 2 1 1 1 1 0 0 0 0
3 2 4 5 3 2 4 5 6 4 5 5 5 6 2 3 2 4 3 3 3 3 3 2 2 2 2 2 2 2 2 2 3 3 3 2 2 1 1 1 1 0 0 0
3 3 2 3 2 2 3 5 6 4 3 5 6 7 1 1 1 1 3 3 3 3 3 2 2 2 1 1 1 1 2 2 2 2 2 2 2 2 1 1 1 1 0 0
2 4 6 8 4 3 5 7 7 6 6 7 10 10 7 4 3 2 2 3 4 4 3 2 2 1 1 1 1 1 2 2 2 2 2 2 2 2 1 1 1 1 0 0
3 5 6 9 8 7 8 10 11 12 12 10 11 12 11 7 4 3 3 3 3 3 3 3 2 1 1 1 1 1 1 2 2 2 2 2 2 2 1 1 1 1 1 0
3 4 4 7 8 8 11 13 13 14 13 14 14 15 9 5 2 1 2 3 4 3 2 2 2 2 1 1 0 1 1 2 2 2 2 2 3 2 2 1 1 1 1 1
4 4 4 6 4 5 12 12 13 11 10 10 13 12 4 4 3 3 3 3 3 3 2 2 2 2 1 1 1 0 1 2 2 2 2 2 2 2 3 2 1 1 1 1
5 5 4 3 2 11 9 4 8 10 10 9 8 5 4 4 2 1 1 2 2 1 2 2 2 1 1 1 0 0 1 1 1 2 2 2 2 2 3 2 2 1 1 1
7 7 4 4 6 11 8 4 4 6 8 6 7 6 3 1 1 1 0 1 1 2 1 2 2 2 1 1 1 0 0 1 1 2 2 2 2 2 2 3 2 2 1 1
4 5 5 5 6 9 6 2 1 2 7 3 3 4 3 1 3 3 0 1 1 1 2 2 2 2 1 1 1 1 1 1 1 2 2 2 2 2 2 2 3 2 1 1
5 5 9 9 9 10 3 2 3 5 6 1 2 2 2 4 4 1 1 1 1 2 2 2 2 1 1 1 1 2 2 2 2 2 2 2 2 2 2 2 2 1 1 1
9 8 9 7 9 10 2 4 5 4 1 1 1 1 1 2 1 0 1 1 1 1 1 2 1 1 1 1 1 2 2 2 1 1 1 2 2 2 2 2 2 1 1 1
8 8 5 8 8 1 4 3 2 1 1 1 1 2 1 2 2 1 1 1 1 1 1 1 1 1 1 1 1 2 2 1 1 1 2 2 2 2 2 2 2 1 1 1
4 2 3 4 5 3 3 2 1 0 1 2 2 2 2 3 2 2 1 1 1 1 1 1 1 1 2 1 1 1 1 1 1 1 2 2 2 2 2 2 2 2 2 2
4 3 3 6 5 3 3 3 2 1 2 2 2 2 2 2 2 2 2 2 2 1 1 1 2 3 3 1 2 2 1 1 1 2 2 3 2 2 2 2 2 2 2 3
4 5 6 8 4 4 3 1 0 0 2 2 2 3 3 2 2 2 2 2 2 2 1 1 2 3 3 2 2 2 2 2 2 3 3 2 2 2 2 2 3 5 5 6
Wind_Direction
188 219 223 221 225 259 291 286 283 298 320 280 257 264 265 257 247 239 237 230 208 144 82 75 62 51 50 39 44 65 82 65 70 96 111 118 129 126 116 96 93 101 94 102
198 232 242 255 252 261 273 281 281 297 329 299 279 273 267 244 225 221 227 213 169 113 86 69 55 55 56 53 49 53 64 83 91 87 130 125 124 121 99 90 88 86 92 93
222 260 246 242 245 252 260 261 273 284 312 256 273 278 244 221 194 188 186 163 130 125 104 88 63 50 52 50 49 50 52 66 84 86 98 94 87 92 102 103 101 90 104 110
243 259 241 244 243 243 260 276 281 283 287 272 240 283 258 218 193 188 167 136 120 115 104 93 80 58 48 40 46 52 60 62 70 104 105 123 132 135 130 140 116 106 107 111
234 229 236 235 238 232 258 311 279 267 261 276 247 255 269 208 197 197 170 142 118 106 98 83 73 69 58 44 41 42 53 58 60 80 99 111 92 86 95 106 113 121 121 102
253 269 261 264 267 247 258 265 261 255 250 256 228 224 263 218 198 174 159 141 121 102 94 86 81 74 63 49 42 39 47 46 54 79 95 108 93 83 96 92 113 118 107 116
243 223 215 251 227 208 217 208 246 236 223 244 234 227 246 198 105 139 151 144 130 112 99 95 84 72 60 49 38 38 43 38 32 54 77 105 144 132 139 139 157 157 164 212
226 240 190 198 212 200 217 225 205 229 243 265 241 235 245 123 78 75 109 129 125 118 109 99 89 78 63 50 40 38 36 31 25 30 22 29 28 39 105 86 156 189 199 207
234 244 124 211 272 234 205 227 273 279 288 276 242 232 239 177 166 151 128 127 132 126 116 109 99 88 75 54 43 38 33 25 18 15 10 14 16 23 16 2 37 133 336 222
281 265 220 140 290 257 254 235 179 205 230 253 253 233 221 188 190 172 166 163 144 126 116 114 108 95 82 59 38 36 35 24 10 10 5 11 11 11 355 10 40 37 16 13
277 229 218 194 206 208 202 214 216 223 229 238 259 253 277 170 174 175 174 156 150 141 130 126 112 96 86 72 51 35 25 21 14 8 6 8 10 11 0 3 8 24 18 34
206 217 236 229 232 255 220 213 196 203 237 235 258 263 19 73 101 149 160 150 142 141 138 134 123 108 95 73 53 37 24 19 5 359 355 356 6 16 10 351 347 11 18 335
170 195 239 252 229 223 235 227 222 232 241 233 239 256 165 67 53 134 158 160 156 148 139 134 129 129 119 90 59 32 23 8 354 357 355 350 352 359 354 342 341 355 7 338
204 217 218 231 240 207 239 241 230 221 231 243 241 257 255 250 244 211 188 183 164 159 158 154 152 145 125 94 62 31 11 1 353 357 355 340 337 340 339 338 334 333 357 347
196 235 243 262 274 262 249 244 231 225 229 237 253 257 264 250 237 218 194 180 173 180 179 179 178 164 133 95 49 29 2 352 352 351 345 337 337 341 348 344 336 346 10 4
202 236 254 268 265 266 264 251 239 239 240 247 259 264 263 278 274 237 193 186 196 196 191 184 175 166 157 148 94 13 342 340 344 340 340 351 349 352 353 343 342 9 19 12
207 208 231 260 278 305 262 236 226 229 224 226 244 255 275 277 244 210 212 207 204 197 189 189 187 179 170 185 189 260 324 339 342 341 343 349 353 349 345 343 352 1 6 4
204 203 223 253 259 245 247 208 213 227 237 232 246 264 264 259 244 194 185 182 197 205 196 184 162 161 154 148 107 45 354 340 335 333 336 346 352 346 342 341 346 352 353 335
210 201 213 218 241 264 266 231 210 221 250 235 242 261 268 309 320 276 304 138 193 201 187 164 147 143 136 148 143 151 311 322 325 322 328 337 338 334 334 332 331 328 332 327
211 203 212 219 232 246 252 195 206 204 257 242 224 252 254 190 245 256 205 125 124 115 122 121 114 110 139 176 177 201 236 261 285 300 307 319 321 313 314 314 313 318 308 299
180 202 217 227 240 256 251 163 126 197 244 236 212 237 225 213 234 250 124 112 111 115 118 117 122 151 192 190 194 218 230 245 272 296 307 314 313 305 300 300 298 300 310 320
188 192 205 208 228 246 178 150 188 216 28 16 315 276 256 258 277 106 149 143 127 124 124 132 147 199 203 184 202 239 253 276 304 302 301 303 306 302 298 289 287 281 267 273
207 203 201 205 219 213 138 169 193 65 295 304 306 307 287 273 254 261 254 198 183 177 170 157 183 244 256 230 220 247 276 317 322 308 294 298 301 299 289 274 269 269 254 242
231 222 216 243 249 231 205 227 250 288 275 304 301 288 263 254 243 243 241 249 245 225 206 192 201 248 264 271 274 273 304 325 287 272 281 285 285 292 294 282 262 245 239 237
220 182 218 247 261 270 242 238 263 285 305 319 320 307 275 248 254 256 255 258 256 259 247 221 221 241 259 275 279 290 298 271 254 266 273 277 274 269 271 272 256 247 246 236
204 192 207 235 228 218 243 247 296 293 303 303 309 309 308 275 253 267 265 268 269 266 267 245 245 252 263 263 263 270 263 235 229 250 258 261 262 261 255 263 278 268 262 263